{"data":{"norad_id":46075,"intl_designator":"2020-055BA","name":"STARLINK-1551","alt_names":[],"object_type":"PAYLOAD","status":"ACTIVE","operator":null,"country":"US","launch_date":"2020-08-07","launch_site_code":"AFETR","launch_vehicle":null,"mission":null,"orbit_class":"UNKNOWN","rcs_meters":null,"size_class":null,"mass_kg":null,"dimensions":null,"purposes":["comms"],"wikipedia_slug":null,"has_3d_model":false,"image_url":null,"decayed_at":null,"tle_current":{"epoch":"2026-09-19T18:06:53.787744Z","epoch_age_seconds":82608,"freshness":"FRESH","line1":"1 46075U 20055BA  26262.75478921  .00000007  00000+0  11984-4 0  9998","line2":"2 46075  53.1593 278.5668 0001047 104.2725 255.8393 15.31701088338963","mean_motion":15.31701088,"eccentricity":0.0001047,"inclination_deg":53.1593,"raan_deg":278.5668,"arg_perigee_deg":104.2725,"mean_anomaly_deg":255.8393,"bstar":1.1984e-5,"rev_number":33896,"period_min":94.013121181513,"perigee_km":470.01967487435,"apogee_km":471.45382903801,"semimajor_km":6848.8737519562,"source":"CELESTRAK","updated_at":"2026-09-20T09:00:38.465122Z"}}}